Simultaneous Nadir Overpasses (SNOs) Predictions

Prediction of SNOs near equator between AQUA and NPP Satellite Orbit:

Table of predicted SNOs near equator for the next 14.0 days since TLE Epoch: 3/22/2019
Index Date (AQUA) Time (AQUA) AQUA Lat,Lon Date (NPP) Time (NPP) NPP Lat,Lon Distance(km) Time Diff (sec)
1 03/24/2019 16:27:47 -11.68, 135.33 03/24/2019 16:17:47 -11.74, 134.94 43.07 600
2 03/24/2019 17:14:35 1.88, -54.94 03/24/2019 17:05:47 1.78, -55.51 64.93 528
3 03/24/2019 18:02:44 2.58, 113.67 03/24/2019 17:55:10 2.77, 112.84 94.49 454
4 03/27/2019 08:42:29 -5.13,-107.38 03/27/2019 08:32:47 -5.08,-107.77 43.36 582
5 03/27/2019 09:30:43 0.53, 61.23 03/27/2019 09:22:17 0.41, 60.57 73.70 506
6 03/30/2019 00:58:38 -3.84, 8.77 03/30/2019 00:49:18 -3.77, 8.31 52.20 560
7 03/30/2019 01:46:51 -0.82, 177.39 03/30/2019 01:38:47 -0.97, 176.66 82.46 484
8 04/01/2019 16:32:57 29.95, -49.00 04/01/2019 16:22:57 30.00, -49.59 57.24 600
9 04/01/2019 17:14:45 -2.50, 124.93 04/01/2019 17:05:47 -2.40, 124.39 61.02 538
10 04/01/2019 18:02:59 -2.11, -66.46 04/01/2019 17:55:17 -2.28, -67.27 91.28 462
11 04/04/2019 08:42:44 5.63, 72.49 04/04/2019 08:32:54 5.58, 72.13 40.24 590
12 04/04/2019 09:30:53 -1.16,-118.91 04/04/2019 09:22:17 -1.03,-119.52 69.88 516




NCC Satellite Simultaneous Nadir Overpasses (SNOs) Prediction Service
